Regional Weather Roundup
Issued by NWS Albany, NY

Home | Current Version | Previous Version | Text Only | Print | Product List | Glossary On
Versions: 1 2 3 4 5 6 7 8 9 10 11 12 13 14 15 16 17 18 19 20 21 22 23 24 25 26 27 28 29 30 31 32 33 34 35 36 37 38 39 40 41 42 43 44 45 46 47 48 49 50
000
ASUS41 KALY 270310
RWRALY

NEW YORK STATE HOURLY WEATHER ROUNDUP
NATIONAL WEATHER SERVICE ALBANY NY
1000 PM EST FRI DEC 26 2014

NOTE: "FAIR" INDICATES FEW OR NO CLOUDS BELOW 12,000 FEET WITH NO
SIGNIFICANT WEATHER AND/OR NO OBSTRUCTIONS TO VISIBILITY.

NYZ032-033-038>043-046>054-057>066-NYZ062>081-270400-
EAST


CITY           SKY/WX    TMP DP  RH WIND       PRES   REMARKS
ALBANY         PTCLDY    28  25  88 CALM      30.19S
GLENS FALLS    CLEAR     28  24  85 CALM      30.18R
POUGHKEEPSIE   CLEAR     32  26  78 SE6       30.20S WCI  26
MONTGOMERY     CLEAR     27  23  85 CALM      30.20R
WHITE PLAINS   CLEAR     41  28  60 W7        30.20S
ISLIP          PTCLDY    37  29  72 W5        30.21S WCI  33
NEW YORK CITY  CLEAR     46  29  51 W12       30.22S
CENTRAL PARK   CLEAR     45  29  53 VRB3      30.25S
$$

NYZ005>009-017-018-044>046-055-056-270400-
CENTRAL


CITY           SKY/WX    TMP DP  RH WIND       PRES   REMARKS
FULTON         CLEAR     31  26  82 CALM      30.14F
SYRACUSE       CLEAR     31  27  85 SE3       30.14F
ROME           PTCLDY    27  25  92 CALM      30.18F
ELMIRA         CLEAR     27  24  89 CALM      30.17S
BINGHAMTON     CLEAR     35  26  69 SW8       30.15R WCI  29
MONTICELLO     CLEAR     30  27  86 W3        30.19S
$$

NYZ026>034-041>043-270400-
NORTH


CITY           SKY/WX    TMP DP  RH WIND       PRES   REMARKS
WATERTOWN      CLOUDY    42  27  55 S5        30.13F
FORT DRUM      NOT AVBL
MASSENA        CLOUDY    39  32  76 SW8       30.13S WCI  33
SARANAC LAKE   CLOUDY    34  29  82 SW10      30.07F WCI  26
PLATTSBURGH    CLOUDY    42  30  62 SW6       30.12S
$$

NYZ001>004-010>016-019>021-270400-
WEST


CITY           SKY/WX    TMP DP  RH WIND       PRES   REMARKS
NIAGARA FALLS  PTCLDY    38  33  82 SW8       30.13R WCI  32
BUFFALO        PTCLDY    40  34  79 SW7       30.13R
DUNKIRK        CLEAR     43  32  65 SW15G25   30.14S
JAMESTOWN      PTCLDY    39  28  65 SW12G17   30.15S WCI  32
WELLSVILLE     CLEAR     39  29  67 SW16G24   30.14S WCI  30
ROCHESTER      CLEAR     34  27  75 CALM      30.14S
PENN YAN       CLEAR     29  25  85 S3        30.14F
$$

             KEY
       WCI = WIND CHILL INDEX
       VSB = VISIBILITY
       HX  = HEAT INDEX
$$


USA.gov is the U.S. government's official web portal to all federal, state and local government web resources and services.